Regional Weather Roundup
Issued by NWS Cleveland, OH

Home | Current Version | Previous Version | Graphics & Text | Print | Product List | Glossary On
Versions: 1 2 3 4 5 6 7 8 9 10 11 12 13 14 15 16 17 18 19 20 21 22 23 24 25 26 27 28 29 30 31 32 33 34 35 36 37 38 39 40 41 42 43 44 45 46 47 48 49 50
726
ASUS41 KCLE 100012
RWRCLE
OHIO REGIONAL WEATHER ROUNDUP
NATIONAL WEATHER SERVICE WILMINGTON, OH
700 PM EST TUE FEB 09 2016

NOTE: "FAIR" INDICATES FEW OR NO CLOUDS BELOW 12,000 FEET WITH NO
SIGNIFICANT WEATHER AND/OR OBSTRUCTIONS TO VISIBILITY.

OHZ001>008-015>018-024>027-034-035-043-044-100100-
   NORTHWEST OHIO

CITY           SKY/WX    TMP DP  RH WIND       PRES   REMARKS
DEFIANCE       CLOUDY    27  17  66 W10G18    29.78R WCI  17
FINDLAY        CLOUDY    28  18  66 W17       29.74R WCI  16
TOLEDO EXPRESS CLOUDY    27  18  69 W20G26    29.73R WCI  13
TOLEDO EXEC    CLOUDY    28  19  69 W21G28    29.73R WCI  15
LIMA           FLURRIES  24  21  88 W18       29.77R WCI  10
$$

OHZ009>014-019>023-028>033-038-089-100100-
   NORTHEAST OHIO

CITY           SKY/WX    TMP DP  RH WIND       PRES   REMARKS
CLE-HOPKINS    LGT SNOW  28  24  85 W14       29.70R FOG     WCI  17
CLE-LAKEFRONT  LGT SNOW  30  27  88 W22G33    29.67R FOG     WCI  17
CUY CO. ARPT   LGT SNOW  30  28  93 NW12G23   29.66R VSB 3/4 WCI  21
LORAIN-ELYRIA  LGT SNOW  27  23  85 W14       29.69R FOG     WCI  16
ASHTABULA      LGT SNOW  29  27  92 W15       29.62R FOG     WCI  18
AKRON-CANTON   LGT SNOW  26  23  88 W12       29.66R WCI  16
WOOSTER        LGT SNOW  27  23  85 W18G24    29.69R FOG     WCI  14
MANSFIELD      LGT SNOW  26  23  88 W10       29.69R FOG     WCI  16
YOUNGSTOWN     LGT SNOW  28  24  85 SW13G21   29.63R FOG     WCI  17
$$

OHZ042-051>053-060>062-070>072-077>081-100100-
  SOUTHWEST OHIO

CITY           SKY/WX    TMP DP  RH WIND       PRES   REMARKS
CINC-COVINGTON LGT SNOW  22  18  85 W10       29.88R FOG     WCI  11
CINC-LUNKEN    LGT SNOW  24  19  81 W13       29.92R WCI  12
HAMILTON       LGT SNOW  23  17  78 W10G20    29.89R WCI  12
DAYTON         LGT SNOW  22  18  85 W15G23    29.83R FOG     WCI   9
WRIGHT-PAT AFB FLURRIES  24  17  75 W16G23    29.82R WCI  11
DAYTON GENERAL LGT SNOW  22  17  81 W10G20    29.84R VSB 1   WCI  11
WILMINGTON     MIX PCPN  22  17  81 W21       29.82R WCI   6
$$

OHZ036-037-039>041-045>050-054>059-063>069-073>076-082>088-100100-
  CENTRAL AND SOUTHEAST OHIO

CITY           SKY/WX    TMP DP  RH WIND       PRES   REMARKS
COLUMBUS       LGT SNOW  25  18  74 W13       29.78R WCI  14
OSU AIRPORT    CLOUDY    25  20  81 W13G22    29.78R WCI  14
BOLTON FIELD   CLOUDY    24  20  83 W9        29.80R WCI  15
RICKENBACK AFB LGT SNOW  23  20  90 W12       29.80R WCI  12
NEWARK         LGT SNOW  25  20  81 MISG      29.76R
MARION         CLOUDY    26  19  74 W17G23    29.74R WCI  13
LANCASTER      LGT SNOW  23  19  85 SW14      29.80R FOG     WCI  11
ZANESVILLE     LGT SNOW  26  19  74 W12       29.76R WCI  16
NEW PHILLY     LGT SNOW  26  21  81 W8        29.72R WCI  18
$$




USA.gov is the U.S. government's official web portal to all federal, state and local government web resources and services.